Flag for Spain Weather past 2 weeks in Granada, Spain

Now
43 °F

Fog.


Feels Like: 43 °F
Forecast: 23 / 45 °F
Wind: No wind

Location: Granada / Aeropuerto

Current Time: Dec 28, 2014 at 9:54:07 PM

Latest Report: Dec 28, 2014 at 9:30 PM


Visibility: 1 mi

Pressure: 30.15 "Hg

Humidity: 100%

Dew point: 43 °F

Location of GranadaLocation

Historic Weather in Granada — Graph

°F

Granada temperature yesterday

Maximum temperature yesterday: 55 °F (at 4:00 PM)
Minimum temperature yesterday: 27 °F (at 6:30 AM)
Average temperature yesterday: 41 °F

Past Weeks' High & Low Weather Summary

 TemperatureHumidityPressure
High70 °F (Dec 19, 5:30 PM)100% (Dec 14, 6:00 AM)30.51 "Hg (Dec 14, 6:00 AM)
Low27 °F (Dec 25, 8:30 AM)33% (Dec 19, 5:30 PM)29.86 "Hg (Dec 14, 2:30 PM)
Average45 °F82%30.29 "Hg
* Reported Dec 13 8:00 PM — Dec 28 8:30 PM, Granada, Weather by CustomWeather, © 2014

Note: Actual official high and low records may vary slightly from our data, if they occured in-between our weather recording intervals... More about our weather records

Advertising

Granada weather history for previous 24 hours

 ConditionsComfort  
Time TempWeatherWind HumidityBarometerVisibility
8:30 PM
Dec 28
43 °FFog.No wind100%30.15 "Hg1 mi
8:00 PM45 °FFog.No wind93%30.15 "Hg2 mi
7:30 PM45 °FFog.2 mph100%30.15 "Hg3 mi
7:00 PM45 °FLight rain. Fog.1 mph93%30.15 "Hg2 mi
6:30 PM43 °FLight rain. Fog.1 mph100%30.15 "Hg2 mi
6:00 PM45 °FLight rain. Partly sunny.2 mph100%30.15 "Hg5 mi
5:30 PM46 °FPartly sunny.1 mph87%30.15 "HgN/A
5:00 PM46 °FPartly sunny.2 mph87%30.12 "HgN/A
4:30 PM46 °FPartly sunny.1 mph87%30.12 "HgN/A
4:00 PM45 °FPartly sunny.No wind87%30.12 "Hg6 mi
3:30 PM45 °FPartly sunny.1 mph87%30.12 "Hg6 mi
3:00 PM45 °FPartly sunny.No wind87%30.12 "Hg5 mi
2:30 PM45 °FPartly sunny.No wind87%30.12 "Hg5 mi
2:00 PM45 °FPartly sunny.1 mph87%30.15 "Hg4 mi
1:30 PM43 °FPartly sunny.No wind93%30.15 "Hg4 mi
1:00 PM43 °FPartly sunny.No wind93%30.18 "Hg4 mi
12:30 PM41 °FFog.No wind100%30.18 "Hg3 mi
12:00 PM41 °FFog.No wind100%30.18 "Hg2 mi
11:30 AM41 °FFog.No wind100%30.21 "Hg2 mi
11:00 AM39 °FFog.1 mph100%30.18 "Hg2 mi
10:30 AM36 °FFog.2 mph100%30.18 "Hg1 mi
10:00 AM34 °FFog.No wind100%30.18 "Hg0 mi
9:30 AM32 °FIce fog.No wind100%30.18 "Hg0 mi
9:00 AM32 °FIce fog.No wind100%30.18 "Hg0 mi
8:30 AM34 °FFog.No wind100%30.15 "Hg0 mi
8:00 AM34 °FFog.No wind100%30.18 "Hg0 mi
7:30 AM34 °FFog.No wind100%30.15 "Hg0 mi
7:00 AM32 °FFog.No wind100%30.15 "Hg1 mi
6:30 AM34 °FFog.No wind100%30.15 "Hg2 mi
6:00 AM32 °FIce fog.No wind100%30.18 "Hg2 mi
11:00 PM
Dec 27
36 °FPassing clouds.1 mph100%30.24 "HgN/A
10:30 PM37 °FPassing clouds.2 mph93%30.24 "HgN/A
10:00 PM39 °FPassing clouds.2 mph93%30.24 "HgN/A
9:30 PM39 °FPassing clouds.No wind100%30.24 "HgN/A
9:00 PM41 °FPassing clouds.6 mph93%30.24 "HgN/A
Weather by CustomWeather, © 2014

See weather overviewHow to use our weather pages